Location: Marsån
(66.4167°N, 22.2833°E)
Time: 11:21:00
(UTC+00:00)

Meteor 1-5 Rocket - Pass Details

Date: 24 February 2024
Orbit: 788 x 914 km, 81.2° (Epoch: 15 April)

Event Time Altitude Azimuth Distance (km) Brightness Sun altitude
Exits shadow 20:47:33 73° 313° (NW) 882 4.3 -29.6°
Drops below altitude 10° 20:52:53 10° 22° (NNE) 2,429 7.0 -29.9°
Sets 20:55:15 0° 24° (NNE) 3,348 7.8 -30.1°
